Погода в Совьяках

Россия / Калужская область     55°13′45″N   36°25′48″E
темп.,
°C
ветер,
м/с
пор.,
м/с
влажн.,
%
обл.,
%
осадки,
мм/ч
давл.,
гПа
погр.,
м
8 марта, пн
пн800:00−7зюз4128933 0.2 997792
03:00−8зюз4119456 0.3 997427
06:00−6з51190100 0.5 9971167
09:00−8зсз5108485 0.7 999906
12:00−6сз5781100 0.1 1002896
15:00−5сз4679100 0.1 1004869
18:00−8сз238870 0.0 100734
21:00−11сз239366 0.1 100961
9 марта, вт
вт900:00−13ссз359649 0.0 1011102
03:00−15ссз359725 0.0 1013121
06:00−16ссз369739 0.0 1015136
09:00−15ссз369120 0.0 1017287
12:00−11ссз358288 0.0 1017635
15:00−11сз467893 0.0 1018827
18:00−14сз378790 0.0 1019292
21:00−17ссз239459 0.0 102376
10 марта, ср
ср1000:00−20с23970 0.0 102450
03:00−21ссз23970 0.0 102646
06:00−23с23970 0.0 102857
09:00−21с25920 0.0 1029263
12:00−16ссв24730 0.0 1030532
15:00−13ссв24670 0.0 1030759
18:00−16ссз12820 0.0 103020
21:00−19сз23920 0.0 103240
11 марта, чт
чт1100:00−20зсз23890 0.0 103229
03:00−20зсз23890 0.0 103338
06:00−20зсз22921 0.0 103324
09:00−17зсз23860 0.0 1034141
12:00−11зсз23750 0.0 1033422
15:00−8зюз22700 0.0 1032655
18:00−12ююз23870 0.0 103146
21:00−16ююз23880 0.0 103158
12 марта, пт
пт1200:00−17ю37910 0.0 1031129
03:00−19ю39830 0.0 1029209
06:00−19ю39830 0.0 1027232
09:00−14ю5118034 0.0 1024413
12:00−8ю61478100 0.0 1022668
15:00−7ююв71589100 0.1 1018830
18:00−6ю81691100 1.4 10151211
21:00−5ю81692100 2.2 10131089